Weather in Porechye

Russia / Omsk Oblast     56°34′43″N   74°56′41″E
temp.,
°C
wind,
m/s
gust,
m/s
humid.,
%
clouds,
%
prec.,
mm/h
press.,
hPa
HPBL,
m
28 february, sun
sun2800:00−30sse239875 0.0 103354
03:00−30se239883 0.0 103278
06:00−31ese369976 0.0 1030112
09:00−27ese489598 0.0 1028243
12:00−22ese489499 0.0 1026299
15:00−19ese5992100 0.0 1024374
18:00−20ese4109499 0.0 1021397
21:00−20e51194100 0.1 1019378
1 march, mon
mon100:00−20e51095100 0.1 1017326
03:00−19ene51294100 0.1 1014336
06:00−18ene51294100 0.2 1013343
09:00−17ene5109499 0.1 1011340
12:00−15ne5993100 0.1 1011368
15:00−13ne4892100 0.1 1011431
18:00−14ne3993100 0.1 1013446
21:00−15ne289595 0.1 1014311
2 march, tue
tue200:00−18ne239688 0.1 101671
03:00−19ene229783 0.1 101732
06:00−20e129887 0.1 101720
09:00−18ese1297100 0.1 1017109
12:00−14se1290100 0.1 1017333
15:00−12sse2391100 0.2 1016461
18:00−14se2395100 0.4 1016226
21:00−16se229788 0.1 101524
3 march, wed
wed300:00−16se129789 0.2 101545
03:00−17se119799 0.1 101520
06:00−17se119793 0.1 101620
09:00−17s119780 0.1 101657
12:00−12ssw238988 0.1 1016417
15:00−11ssw3490100 0.1 1017504
18:00−13s2695100 0.1 1017244
21:00−16sse3895100 0.0 1017253
4 march, thu
thu400:00−17sse3995100 0.0 1017270
03:00−17sse499499 0.0 1016308
06:00−16sse499499 0.1 1015296
09:00−15sse51194100 0.0 1013347
12:00−12sse51094100 0.1 1012396
15:00−8sse61292100 0.6 1010482
18:00−9sse51290100 0.6 1009591
21:00−9sse51194100 0.9 1008515